This is the latest recevied weather packets stored in our database for station/object KK6LZB. If no packets are shown the sender has not sent any weather packets the latest 10 day(s).
| Time | Temp. | Humidity | Pressure | Rain* | Wind** | Luminosity | Snow |
|---|---|---|---|---|---|---|---|
| 1777906740 | 15° C | 82% | 1017.3 hPa | 0 mm | - | 57 W/m² | - |
| 1777906436 | 15° C | 83% | 1017.3 hPa | 0 mm | - | 63 W/m² | - |
| 1777906133 | 15° C | 83% | 1017.2 hPa | 0 mm | - | 68 W/m² | - |
| 1777905830 | 15° C | 82% | 1017.2 hPa | 0 mm | - | 63 W/m² | - |
| 1777905527 | 15° C | 83% | 1017.3 hPa | 0 mm | - | 51 W/m² | - |
| 1777905223 | 15° C | 83% | 1017.2 hPa | 0 mm | - | 73 W/m² | - |
| 1777904921 | 14.44° C | 83% | 1017.3 hPa | 0 mm | - | 67 W/m² | - |
| 1777904618 | 14.44° C | 84% | 1017 hPa | 0 mm | - | 70 W/m² | - |
| 1777904315 | 14.44° C | 84% | 1017.3 hPa | 0 mm | - | 50 W/m² | - |
| 1777904013 | 14.44° C | 85% | 1017.1 hPa | 0 mm | - | 47 W/m² | - |
| 1777903709 | 13.89° C | 87% | 1017.2 hPa | 0 mm | - | 47 W/m² | - |
| 1777903405 | 13.89° C | 88% | 1017.2 hPa | 0 mm | - | 46 W/m² | - |
| 1777903102 | 13.89° C | 89% | 1017.2 hPa | 0 mm | - | 37 W/m² | - |
| 1777902798 | 13.33° C | 91% | 1017.2 hPa | 0 mm | - | 40 W/m² | - |
| 1777902496 | 13.33° C | 92% | 1017.1 hPa | 0 mm | - | 54 W/m² | - |
| 1777902192 | 12.78° C | 92% | 1017 hPa | 0 mm | - | 41 W/m² | - |
| 1777901890 | 12.78° C | 92% | 1017.1 hPa | 0 mm | - | 28 W/m² | - |
| 1777901588 | 12.78° C | 92% | 1017.1 hPa | 0 mm | - | 18 W/m² | - |
| 1777901285 | 12.78° C | 92% | 1017 hPa | 0 mm | - | 11 W/m² | - |
| 1777900982 | 12.78° C | 92% | 1017.1 hPa | 0 mm | - | 11 W/m² | - |
| 1777900680 | 12.78° C | 91% | 1017 hPa | 0 mm | - | 7 W/m² | - |
| 1777900377 | 12.78° C | 91% | 1016.9 hPa | 0 mm | - | 5 W/m² | - |
| 1777900074 | 12.78° C | 91% | 1017 hPa | 0 mm | - | 3 W/m² | - |
| 1777899770 | 12.78° C | 91% | 1016.9 hPa | 0 mm | - | 2 W/m² | - |
| 1777899467 | 13.33° C | 91% | 1016.7 hPa | 0 mm | - | 1 W/m² | - |
* Rain latest hour (hover to see other rain measurements)
** Current wind speed in m/s (hover to see current wind gust speed)